Regional Weather Roundup
Issued by NWS

Home | Current Version | Previous Version | Text Only | Print | Product List | Glossary On
Versions: 1 2 3 4 5 6 7 8 9 10 11 12 13 14 15 16 17 18 19 20 21 22 23 24 25 26 27 28 29 30 31 32 33 34 35 36 37 38 39 40 41 42 43 44 45 46 47 48 49 50
000
ASUS43 KTOP 191008
RWRKS

WEATHER ROUNDUP FOR KANSAS
NATIONAL WEATHER SERVICE GOODLAND KS
500 AM CDT THU APR 19 2018

NOTE:  "FAIR" INDICATES FEW OR NO CLOUDS BELOW 12,000 FEET WITH NO
SIGNIFICANT WEATHER AND/OR OBSTRUCTIONS TO VISIBILITY.

KSZ001>006-013>018-027>032-041>047-191100-
NORTHWEST KANSAS

CITY           SKY/WX    TMP DP  RH WIND       PRES   REMARKS
GOODLAND       FAIR      27  21  78 S8        30.34R
HAYS           CLOUDY    30  25  81 NW7       30.38R
HILL CITY      CLOUDY    28  25  88 NW6       30.39R
RUSSELL        PTCLDY    30  28  92 NW9       30.36R
$$

KSZ061>065-074>080-084>089-191100-
SOUTHWEST KANSAS

CITY           SKY/WX    TMP DP  RH WIND       PRES   REMARKS
DODGE CITY     CLOUDY    32  24  72 W3        30.35R
ELKHART        FAIR      35  24  64 SE9       30.32S
GARDEN CITY    CLOUDY    31  23  72 CALM      30.35R
GREAT BEND     CLOUDY    30  25  81 W8        30.38R
LIBERAL        PTCLDY    39  25  57 E9        30.35S
PRATT          CLOUDY    32  25  77 N5        30.37R
$$

KSZ066>073-081>083-090>101-191100-
SOUTHEAST KANSAS

CITY           SKY/WX    TMP DP  RH WIND       PRES   REMARKS
CHANUTE        CLOUDY    33  26  75 NW6       30.31R
COFFEYVILLE    CLOUDY    36  29  75 NW5       30.33R
HUTCHINSON     CLOUDY    30  26  85 W6        30.36R
MEDICINE LODGE   N/A     32  27  81 N5        30.36R
NEWTON         CLOUDY    31  26  82 W7        30.36R
PARSONS        CLOUDY    31  27  85 CALM      30.33R
WICHITA INTL   CLOUDY    35  28  75 NW5       30.35R
WICHITA JABRA  CLOUDY    34  29  82 W8        30.35R
WICHITA MCCONL CLOUDY    37  27  67 NW6       30.35R
WINFIELD       CLOUDY    29  26  89 N7        30.36R
$$

KSZ007>012-019>026-033>040-048>060-102>105-191100-
NORTHEAST KANSAS

CITY           SKY/WX    TMP DP  RH WIND       PRES   REMARKS
CONCORDIA      PTCLDY    30  26  85 W8        30.35R
EMPORIA        PTCLDY    29  24  82 NW5       30.31R
LAWRENCE       CLOUDY    40  32  73 N10       30.31R WCI  33
MANHATTAN      PTCLDY    29  25  85 CALM      30.35R
MARYSVILLE     CLEAR     30  28  93 N7        30.34R
OLATHE IND     CLOUDY    39  31  72 NW10      30.30R WCI  32
OLATHE EXE     CLOUDY    37  30  75 N7        30.29R
SALINA         CLOUDY    33  28  81 W9        30.37R
TOPEKA BILLARD CLOUDY    37  29  72 W6        30.32R
TOPEKA FORBES  CLOUDY    38  29  70 NW10      30.31R WCI  31
$$



USA.gov is the U.S. government's official web portal to all federal, state and local government web resources and services.